Marion, VA

5:54 PM EDT on July 20, 2017 (GMT -0400)
Mountain Empire

Weather History for KMKJ - October, 2012

Change the Weather History Date:

Thursday, October 25, 2012

  Actual Average (KBLF) Record (KBLF)
Temperature  
Mean Temperature 61 °F -  
Max Temperature 78 °F 59 °F 78 °F (2012)
Min Temperature 45 °F 44 °F 22 °F (1962)
Degree Days  
Heating Degree Days 4    
Growing Degree Days 11 (Base 50)    
Moisture  
Dew Point 48 °F    
Average Humidity 66    
Maximum Humidity 95    
Minimum Humidity 27    
Precipitation  
Precipitation 0.00 in - - ()
Sea Level Pressure  
Sea Level Pressure 30.20 in    
Wind  
Wind Speed 2 mph (East)    
Max Wind Speed 9 mph    
Max Gust Speed 16 mph    
Visibility 10 miles    
Events      
Averages and records for this station are not official NWS values.
T = Trace of Precipitation, MM = Missing Value Source: NWS Daily Summary

Daily Weather History Graph

Daily Weather History Graph

Search for Another Location

Airport or City:

Trip Planner

Search our weather history database for the weather conditions in past years. The results will help you decide how hot, cold, wet, or windy it might be!

Date:

Astronomy

Oct. 25, 2012 Rise Set
Actual Time 7:42 AM EDT 6:35 PM EDT
Civil Twilight 7:16 AM EDT 7:01 PM EDT
Nautical Twilight 6:45 AM EDT 7:32 PM EDT
Astronomical Twilight 6:15 AM EDT 8:02 PM EDT
Moon 4:16 PM EDT (10/25) 3:43 AM EDT (10/25)
Length of Visible Light 11h 45m
Length of Day
10h 52m
Waxing Gibbous, 84% of the Moon is Illuminated
Oct 25
Waxing Gibbous
Oct 29
Full
Nov 6
Last Quarter
Nov 13
New
Nov 20
First Quarter

Hourly Weather History & Observations

Time (EDT) Temp. Dew Point Humidity Pressure Visibility Wind Dir Wind Speed Gust Speed Precip Events Conditions
12:15 AM 52.7 °F 45.5 °F 76% 30.22 in 10.0 mi Calm Calm - N/A   Clear
12:35 AM 52.7 °F 45.5 °F 76% 30.22 in 10.0 mi Calm Calm - N/A   Clear
12:55 AM 52.5 °F 45.5 °F 77% 30.22 in 10.0 mi Calm Calm - N/A   Clear
1:15 AM 51.6 °F 45.5 °F 80% 30.22 in 10.0 mi Calm Calm - N/A   Clear
1:35 AM 50.7 °F 45.3 °F 82% 30.22 in 10.0 mi Calm Calm - N/A   Clear
1:55 AM 50.7 °F 45.7 °F 83% 30.22 in 10.0 mi Calm Calm - N/A   Clear
2:15 AM 49.3 °F 45.9 °F 88% 30.22 in 10.0 mi Calm Calm - N/A   Clear
2:35 AM 50.5 °F 45.5 °F 83% 30.21 in 10.0 mi Calm Calm - N/A   Clear
2:55 AM 49.6 °F 45.0 °F 84% 30.21 in 10.0 mi Calm Calm - N/A   Clear
3:35 AM 49.1 °F 45.0 °F 86% 30.20 in 10.0 mi Calm Calm - N/A   Clear
3:55 AM 48.6 °F 45.0 °F 87% 30.20 in 10.0 mi Calm Calm - N/A   Clear
4:15 AM 47.7 °F 44.6 °F 89% 30.19 in 10.0 mi Calm Calm - N/A   Clear
4:35 AM 48.2 °F 44.8 °F 88% 30.19 in 10.0 mi Calm Calm - N/A   Clear
4:55 AM 47.8 °F 44.6 °F 89% 30.19 in 10.0 mi Calm Calm - N/A   Clear
5:15 AM 47.3 °F 44.2 °F 89% 30.19 in 10.0 mi Calm Calm - N/A   Clear
5:35 AM 49.1 °F 44.6 °F 84% 30.19 in 10.0 mi Calm Calm - N/A   Clear
5:55 AM 47.7 °F 44.6 °F 89% 30.19 in 10.0 mi Calm Calm - N/A   Clear
6:15 AM 47.1 °F 44.4 °F 90% 30.20 in 10.0 mi Calm Calm - N/A   Clear
6:35 AM 47.5 °F 44.6 °F 90% 30.20 in 10.0 mi Calm Calm - N/A   Clear
6:55 AM 46.4 °F 43.5 °F 90% 30.20 in 10.0 mi Calm Calm - N/A   Clear
7:55 AM 45.5 °F 44.1 °F 95% 30.21 in 10.0 mi Calm Calm - N/A   Clear
8:15 AM 46.4 °F 44.8 °F 94% 30.21 in 10.0 mi Calm Calm - N/A   Clear
8:35 AM 48.4 °F 46.2 °F 92% 30.22 in 10.0 mi Calm Calm - N/A   Clear
8:55 AM 50.9 °F 47.8 °F 89% 30.22 in 10.0 mi Calm Calm - N/A   Clear
9:55 AM 60.4 °F 51.4 °F 72% 30.24 in 10.0 mi East 5.8 mph - N/A   Clear
10:15 AM 61.2 °F 52.3 °F 73% 30.24 in 10.0 mi East 4.6 mph - N/A   Clear
10:55 AM 65.8 °F 52.5 °F 62% 30.24 in 10.0 mi ENE 4.6 mph - N/A   Clear
11:15 AM 67.5 °F 52.2 °F 58% 30.24 in 10.0 mi East 5.8 mph - N/A   Clear
11:55 AM 71.1 °F 49.6 °F 47% 30.23 in 10.0 mi ENE 6.9 mph - N/A   Clear
12:15 PM 72.5 °F 49.8 °F 45% 30.22 in 10.0 mi ENE 6.9 mph - N/A   Clear
12:35 PM 73.6 °F 48.7 °F 41% 30.22 in 10.0 mi East 8.1 mph - N/A   Clear
12:55 PM 74.8 °F 50.9 °F 43% 30.20 in 10.0 mi East 5.8 mph - N/A   Clear
1:15 PM 75.6 °F 48.7 °F 39% 30.19 in 10.0 mi East 8.1 mph - N/A   Clear
1:35 PM 76.5 °F 49.3 °F 38% 30.19 in 10.0 mi East 8.1 mph - N/A   Clear
1:55 PM 76.6 °F 47.7 °F 36% 30.18 in 10.0 mi East 8.1 mph - N/A   Clear
2:15 PM 77.7 °F 45.3 °F 32% 30.17 in 10.0 mi ESE 8.1 mph - N/A   Clear
2:55 PM 77.9 °F 42.8 °F 29% 30.16 in 10.0 mi East 5.8 mph - N/A   Clear
3:15 PM 77.9 °F 42.3 °F 28% 30.16 in 10.0 mi SE 6.9 mph - N/A   Clear
3:35 PM 77.5 °F 41.4 °F 27% 30.16 in 10.0 mi ESE 8.1 mph 16.1 mph N/A   Clear
3:55 PM 77.7 °F 42.8 °F 29% 30.15 in 10.0 mi SE 9.2 mph - N/A   Clear
4:15 PM 76.5 °F 42.4 °F 30% 30.15 in 10.0 mi SE 8.1 mph - N/A   Clear
4:35 PM 75.7 °F 42.4 °F 30% 30.15 in 10.0 mi ESE 8.1 mph 16.1 mph N/A   Clear
4:55 PM 75.2 °F 42.3 °F 31% 30.16 in 10.0 mi ESE 6.9 mph - N/A   Clear
5:35 PM 74.1 °F 43.9 °F 34% 30.16 in 10.0 mi SE 6.9 mph - N/A   Clear
5:55 PM 72.5 °F 45.5 °F 38% 30.17 in 10.0 mi SE 6.9 mph - N/A   Clear
6:35 PM 69.1 °F 49.6 °F 50% 30.18 in 10.0 mi ESE 4.6 mph - N/A   Clear
6:55 PM 67.1 °F 50.5 °F 55% 30.18 in 10.0 mi East 6.9 mph - N/A   Clear
7:15 PM 66.7 °F 50.9 °F 57% 30.19 in 10.0 mi East 8.1 mph - N/A   Clear
7:35 PM 65.7 °F 51.4 °F 60% 30.19 in 10.0 mi East 6.9 mph - N/A   Clear
7:55 PM 65.3 °F 52.0 °F 62% 30.19 in 10.0 mi East 6.9 mph - N/A   Clear
8:15 PM 64.0 °F 52.0 °F 65% 30.20 in 10.0 mi ENE 6.9 mph - N/A   Clear
8:35 PM 63.9 °F 52.2 °F 66% 30.20 in 10.0 mi East 3.5 mph - N/A   Clear
8:55 PM 61.3 °F 52.2 °F 72% 30.20 in 10.0 mi East 3.5 mph - N/A   Clear
9:15 PM 62.1 °F 52.9 °F 72% 30.19 in 10.0 mi Calm Calm - N/A   Clear
9:35 PM 61.2 °F 52.7 °F 74% 30.19 in 10.0 mi Calm Calm - N/A   Clear
9:55 PM 60.1 °F 52.9 °F 77% 30.20 in 10.0 mi Calm Calm - N/A   Clear
10:15 PM 60.4 °F 52.7 °F 76% 30.20 in 10.0 mi East 3.5 mph - N/A   Clear
10:35 PM 60.8 °F 53.4 °F 77% 30.19 in 10.0 mi Calm Calm - N/A   Clear
10:55 PM 57.9 °F 52.2 °F 81% 30.19 in 10.0 mi Calm Calm - N/A   Clear
11:15 PM 57.2 °F 52.3 °F 84% 30.19 in 10.0 mi Calm Calm - N/A   Clear
11:55 PM 54.9 °F 51.4 °F 88% 30.18 in 10.0 mi Calm Calm - N/A   Clear